Starlink 3996

operational
NORAD ID: 52617 Int'l Des: 2022-052 Owner: SPXS Country: US Constellation: starlink
LEOCIRCULAR

About Starlink 3996

Description loading...

Live Position

Loading 3D Globe...

Upcoming Passes

Altitude History

Altitude vs Time

uPlot chart will show altitude changes over time

Two-Line Element Set

1 52617U 22052V 25296.95929058 .00001862 00000-0 13503-3 0 9995
2 52617 53.2166 162.9312 0001388 91.5036 268.6115 15.08849698190348
Epoch: Oct 23, 2025 • Age: 7 hours

Current Status

Altitude 550.8 km
Velocity 7.59 km/s
Sub-Earth Point -33.41°S, 117.48°W
Launch Date May 14, 2022
Age 3.4 years
Type internet

Technical Details

Classification Payload
Mass 297.00 kg
Dry Mass 275.00 kg
Total Mass 297.00 kg
Length 0.20 m
Diameter 2.80 m
Span 9.00 m
Shape Box + pan
Manufacturer SPXS
Bus Type Starlink
Phase Status In Orbit
Owner/State SPXS/US

Large Constellations

Loading constellations...